Location: Bottom School (historical)
(37.9078°N, 89.3593°W)
Time: 20:41:05
(UTC+00:00)

ISS - Visible Passes

Search period start: 28 November 2022 00:00
Search period end: 08 December 2022 00:00
Orbit: 411 x 420 km, 51.6° (Epoch: 28 November)

Date Brightness Start Highest point End Pass type
(mag) Time Alt. Az. Time Alt. Az. Time Alt. Az.
30 Nov -1.3 23:52:49 10° N 23:53:32 11° NNE 23:53:32 11° NNE visible
02 Dec -1.0 00:39:29 10° NNW 00:39:48 12° NNW 00:39:48 12° NNW visible
02 Dec -2.0 23:51:01 10° NNW 23:53:15 18° NNE 23:53:15 18° NNE visible
04 Dec -1.8 00:38:17 10° NW 00:39:45 23° NW 00:39:45 23° NW visible
04 Dec -3.1 23:49:35 10° NW 23:52:42 36° NNE 23:53:31 31° ENE visible
06 Dec -2.5 00:37:23 10° WNW 00:40:29 39° SW 00:40:29 39° SW visible
06 Dec -3.7 23:48:22 10° NW 23:51:42 77° SW 23:54:55 11° SE visible
